Wind_Speed
38 38 38 38 38 39 39 39 39 38 38 39 39 39 38 38 38 38 37 36 35 33 32 32 32 32 31 31 30 30 31 31 31 31 31 32 32 32 33 33 33 34 35 35
37 37 37 38 40 40 39 39 39 38 38 39 39 39 39 38 38 37 37 36 35 34 33 32 32 31 31 30 30 30 30 31 31 31 31 31 32 32 32 33 33 34 35 35
35 35 37 39 41 41 40 39 39 39 39 39 39 39 39 38 38 37 37 36 35 34 33 33 32 31 31 31 30 30 30 31 31 31 31 31 32 32 32 32 33 34 35 35
34 35 36 38 39 40 40 39 39 39 39 39 39 40 39 38 38 37 36 35 35 34 34 33 32 32 31 31 31 31 31 31 31 31 31 31 31 31 32 32 33 33 34 35
33 34 36 37 37 38 39 38 39 39 40 40 39 40 38 38 37 36 36 35 35 35 34 34 33 32 32 32 32 31 31 31 31 31 31 31 31 31 31 32 32 33 34 34
30 33 34 35 35 37 38 39 39 39 40 41 39 40 39 37 36 36 36 35 35 34 34 34 33 33 32 32 32 32 31 31 31 31 31 31 32 31 31 32 32 33 34 34
29 31 32 33 34 35 37 38 39 40 41 41 39 40 39 37 36 35 35 35 35 34 34 33 33 33 33 32 32 32 32 32 32 32 32 32 32 32 32 32 33 33 34 34
28 29 30 32 33 33 35 36 37 39 41 39 38 39 37 36 36 35 34 34 34 34 34 33 33 32 32 32 33 33 33 33 32 32 32 33 33 33 33 33 33 34 34 34
27 27 28 30 32 32 33 35 36 36 38 39 38 37 36 36 35 35 34 34 34 34 33 33 33 32 32 32 32 33 33 33 33 32 32 33 33 33 34 34 34 34 34 34
26 27 27 28 30 33 32 33 35 36 37 38 38 37 36 35 34 34 34 34 34 33 33 33 33 33 32 32 32 33 33 33 33 33 33 33 33 33 34 34 33 33 34 33
25 26 27 28 30 31 32 32 34 35 36 36 36 36 35 35 34 33 33 33 33 33 33 33 33 33 33 33 33 33 32 33 33 33 33 33 33 33 33 33 33 33 33 33
23 25 26 27 29 31 32 31 32 33 35 35 34 34 33 34 33 33 32 32 32 33 32 32 32 32 32 32 32 32 32 32 32 33 33 33 33 33 33 33 33 33 33 33
22 24 25 26 28 30 31 31 31 32 34 35 34 33 32 32 33 32 32 32 32 32 32 32 32 32 31 31 32 32 32 32 32 33 33 32 33 33 33 33 33 33 33 33
23 23 24 25 26 27 29 30 31 32 34 35 34 32 31 31 32 32 32 32 32 31 32 32 32 31 31 31 31 31 31 32 32 32 32 32 32 33 32 33 33 32 31 30
24 24 24 24 25 27 27 28 30 31 32 33 33 32 31 30 31 32 32 32 32 32 32 32 32 32 31 31 30 30 31 31 31 32 31 31 31 31 31 31 31 30 29 29
24 25 24 24 24 26 27 28 30 30 31 32 32 32 31 30 30 31 31 32 33 33 33 33 32 32 31 31 30 30 30 30 31 31 31 31 31 30 30 30 30 29 29 29
23 25 24 23 24 25 26 26 28 29 29 30 30 30 30 30 30 31 31 32 33 33 34 33 32 32 31 31 30 30 30 30 30 30 30 30 30 29 29 28 28 27 28 28
21 23 24 24 24 25 25 25 26 28 28 29 29 29 29 29 30 31 31 32 33 34 33 33 32 31 31 31 31 30 30 30 30 29 29 28 28 28 27 27 27 27 26 27
20 21 22 22 24 24 23 24 25 27 28 29 29 29 29 29 30 31 31 31 32 33 33 33 33 32 31 30 30 30 30 30 29 29 28 27 27 26 26 26 26 26 26 26
19 20 21 22 23 22 21 23 24 25 27 28 28 29 29 29 29 29 30 30 30 31 32 32 32 32 31 31 30 29 29 29 28 28 28 27 26 25 25 25 25 25 25 25
18 20 21 21 22 22 21 23 23 24 25 26 27 28 29 29 29 28 29 29 29 30 31 32 32 32 32 31 30 30 29 28 28 28 28 27 26 26 25 25 25 25 25 25
17 19 20 21 22 21 21 22 24 23 24 25 25 26 27 28 29 29 29 28 28 29 30 31 31 32 32 32 31 30 29 28 28 28 27 26 26 26 25 25 25 25 25 25
18 19 20 20 20 20 21 22 23 23 24 25 25 25 25 26 27 28 29 29 28 28 29 29 30 31 31 31 31 30 29 29 29 28 27 26 26 25 25 24 25 25 25 24
18 19 20 21 21 21 21 22 22 23 24 24 25 26 26 25 26 27 27 28 29 29 29 29 29 29 30 30 30 30 30 29 29 28 27 26 25 25 24 24 24 25 24 23
18 19 20 21 22 22 22 22 22 22 23 24 25 26 26 26 26 26 27 27 28 28 28 28 29 29 28 28 29 30 30 30 29 28 27 26 25 25 24 24 24 24 24 23
19 20 20 21 21 22 22 22 22 23 23 23 24 25 25 26 26 26 26 28 28 28 28 28 27 28 27 27 27 28 28 28 28 28 27 26 25 25 24 24 23 23 22 22
Wind_Direction
228 231 230 230 231 231 232 233 232 232 232 234 233 233 231 232 233 234 235 237 238 239 241 243 244 245 246 248 248 249 250 250 252 255 258 260 263 265 268 270 271 272 274 275
229 230 230 230 230 230 231 232 232 231 232 234 233 233 232 232 233 234 235 236 238 239 239 241 244 245 246 247 249 250 250 251 253 256 258 261 263 266 268 270 272 274 275 276
230 230 229 230 230 230 231 232 232 233 233 235 235 233 232 232 234 234 236 236 237 237 238 240 242 244 245 247 248 250 251 252 254 256 258 260 264 266 269 272 274 276 276 277
230 228 228 230 230 231 231 232 233 234 234 235 235 235 232 233 234 234 235 235 236 237 238 240 241 243 244 246 248 250 251 252 254 256 259 261 264 266 270 273 275 277 277 278
230 228 228 230 230 230 230 231 233 234 235 236 236 237 233 234 234 234 234 235 235 236 238 239 241 243 244 246 248 250 251 253 255 257 260 262 265 267 270 273 275 277 279 278
230 229 229 230 230 230 229 229 231 233 234 236 235 238 236 234 234 234 234 234 235 236 238 239 240 242 244 246 248 249 251 253 256 257 260 263 265 268 270 273 275 277 278 278
228 228 228 228 228 228 229 228 230 232 233 235 235 237 237 235 234 234 234 235 236 236 237 239 241 243 244 246 248 250 252 254 256 258 261 263 266 268 271 273 275 277 277 278
228 228 227 228 229 230 230 229 231 233 234 235 236 237 235 235 234 234 234 234 235 236 237 238 240 242 244 246 248 250 252 254 257 259 262 264 266 268 271 273 276 277 278 279
230 230 229 229 229 229 229 229 230 233 235 236 236 236 235 235 235 234 234 234 235 236 237 238 240 242 244 245 247 250 253 256 257 260 262 264 266 268 270 273 276 278 278 279
233 232 229 228 227 227 228 228 229 230 233 234 235 235 235 234 235 235 235 234 235 236 237 239 240 242 244 246 248 251 253 256 257 260 262 264 266 268 270 273 276 278 279 278
234 234 231 231 229 228 226 226 227 230 232 233 234 235 235 236 235 235 235 235 235 235 236 238 241 243 245 247 249 251 253 255 257 260 262 264 266 268 270 272 275 277 278 278
233 233 233 233 232 230 228 228 228 230 232 232 233 235 234 236 236 235 234 233 233 234 235 237 239 242 245 248 250 251 253 255 258 260 262 264 265 268 270 272 275 277 278 278
236 236 235 232 231 230 229 229 229 231 231 232 234 234 234 235 236 235 234 232 232 233 235 237 239 242 245 247 249 251 254 255 257 259 261 263 265 267 270 272 274 276 277 277
236 237 237 236 235 233 231 230 229 230 231 232 234 234 234 234 234 234 234 233 232 232 234 236 238 242 245 248 249 251 253 255 257 259 261 264 266 268 269 272 274 275 275 276
236 237 237 237 235 232 231 230 228 228 231 233 233 233 232 234 234 234 234 235 235 234 235 237 240 243 245 247 249 251 253 255 257 258 261 263 265 268 270 272 273 273 274 275
237 238 237 235 233 233 231 230 229 228 229 232 233 233 234 235 234 234 235 237 237 236 237 239 241 244 245 247 249 252 254 256 257 259 261 263 265 267 269 271 271 272 273 275
238 237 237 235 231 230 228 228 230 231 231 232 233 233 235 236 236 236 237 237 237 237 238 239 241 243 244 246 249 252 254 255 258 259 261 262 264 267 269 271 270 270 273 275
235 234 236 236 233 232 228 229 231 231 232 232 232 232 233 236 237 237 238 239 239 239 239 240 240 242 243 246 249 252 253 255 256 258 260 262 263 265 267 269 269 271 274 275
233 232 233 234 235 234 231 231 232 233 232 233 234 233 235 238 239 240 239 239 240 240 241 241 242 241 242 245 248 251 253 254 255 256 258 260 262 264 266 268 268 271 273 275
233 232 233 234 236 237 234 233 233 233 233 234 236 236 236 238 240 240 241 242 242 241 241 241 241 242 244 246 247 249 251 252 254 255 257 259 261 263 265 266 267 270 274 276
235 235 235 238 239 238 237 235 235 237 235 234 236 237 238 240 242 241 241 242 243 243 242 242 243 244 246 247 248 249 250 250 252 254 256 258 259 262 265 265 266 269 273 276
239 239 238 240 240 239 239 238 238 239 237 237 237 238 240 242 243 243 242 242 244 244 244 244 244 246 247 248 249 249 249 248 249 252 255 256 257 260 263 266 266 267 271 276
241 241 242 242 241 240 240 240 240 240 239 238 238 239 240 241 242 243 243 244 244 244 244 245 246 246 246 248 248 249 248 248 249 249 252 254 256 259 261 264 267 269 272 275
243 241 242 242 240 239 238 240 241 241 241 240 240 241 242 242 243 242 244 245 245 245 245 245 246 246 247 248 248 248 248 248 248 247 248 251 254 257 260 264 268 270 272 274
244 242 242 243 241 240 239 238 239 240 242 244 246 247 247 245 245 244 243 243 243 244 244 244 245 246 247 248 248 248 248 248 247 246 246 248 250 254 259 263 267 269 270 271
242 244 243 241 239 239 239 237 239 241 242 245 247 248 248 248 246 245 245 242 242 244 245 244 244 245 246 246 246 246 246 246 246 246 246 247 250 253 257 261 265 267 270 272
Height
5649 5655 5660 5666 5670 5675 5679 5684 5688 5693 5697 5700 5705 5710 5714 5718 5722 5727 5731 5734 5738 5742 5744 5746 5749 5752 5754 5757 5759 5761 5763 5764 5766 5767 5768 5769 5770 5770 5770 5769 5769 5768 5767 5766
5641 5647 5653 5656 5660 5665 5669 5674 5680 5685 5688 5692 5696 5701 5706 5710 5714 5719 5723 5727 5730 5734 5737 5739 5742 5744 5747 5750 5752 5754 5755 5757 5759 5760 5761 5762 5762 5762 5762 5761 5761 5760 5759 5758
5633 5640 5643 5647 5651 5656 5661 5667 5672 5676 5680 5683 5688 5693 5698 5702 5706 5711 5715 5719 5722 5726 5729 5732 5735 5737 5740 5742 5744 5746 5748 5750 5751 5752 5753 5754 5754 5754 5754 5753 5753 5751 5750 5749
5624 5629 5634 5638 5643 5648 5654 5659 5663 5667 5671 5675 5680 5683 5690 5694 5698 5703 5707 5711 5715 5718 5721 5724 5727 5730 5733 5735 5737 5739 5740 5742 5744 5745 5745 5746 5746 5746 5746 5745 5744 5743 5741 5740
5616 5621 5625 5630 5636 5640 5645 5650 5654 5658 5662 5666 5671 5674 5682 5686 5690 5695 5699 5703 5707 5710 5713 5717 5720 5723 5725 5727 5729 5731 5733 5734 5736 5737 5738 5738 5738 5738 5738 5737 5736 5735 5733 5731
5609 5613 5618 5623 5627 5631 5636 5641 5645 5648 5652 5657 5664 5666 5672 5678 5683 5687 5691 5695 5698 5702 5705 5709 5712 5714 5717 5719 5721 5723 5725 5727 5728 5729 5730 5730 5730 5730 5730 5729 5728 5726 5724 5723
5602 5605 5610 5614 5618 5622 5626 5632 5636 5639 5642 5649 5655 5657 5664 5670 5674 5678 5682 5686 5690 5693 5697 5700 5703 5706 5709 5711 5713 5715 5717 5719 5720 5721 5722 5722 5722 5722 5721 5721 5719 5718 5716 5714
5596 5599 5603 5606 5610 5615 5619 5624 5629 5633 5636 5642 5645 5649 5657 5661 5664 5669 5674 5678 5681 5685 5688 5692 5695 5698 5701 5703 5705 5707 5709 5710 5712 5713 5713 5713 5713 5713 5713 5712 5710 5709 5707 5705
5590 5594 5597 5600 5604 5608 5612 5616 5621 5625 5628 5633 5637 5643 5648 5652 5656 5661 5665 5669 5673 5677 5680 5684 5687 5690 5692 5695 5697 5699 5700 5702 5703 5704 5704 5705 5704 5704 5704 5703 5701 5700 5698 5696
5584 5587 5591 5594 5597 5601 5605 5609 5613 5617 5620 5624 5630 5635 5640 5645 5649 5653 5657 5661 5665 5668 5672 5675 5678 5681 5684 5686 5688 5690 5692 5693 5694 5695 5696 5696 5695 5695 5694 5693 5692 5690 5688 5686
5578 5582 5585 5587 5591 5594 5599 5602 5605 5610 5613 5618 5623 5630 5632 5637 5641 5645 5649 5652 5656 5660 5663 5666 5670 5672 5675 5677 5679 5681 5683 5684 5685 5686 5687 5687 5687 5686 5685 5684 5683 5681 5679 5677
5573 5576 5579 5582 5585 5588 5591 5595 5599 5604 5607 5611 5615 5623 5624 5629 5633 5636 5640 5644 5648 5651 5655 5658 5661 5664 5666 5669 5670 5672 5674 5675 5676 5677 5677 5677 5677 5677 5676 5675 5673 5672 5670 5668
5567 5570 5573 5576 5580 5582 5585 5588 5592 5596 5600 5603 5608 5616 5617 5621 5625 5628 5632 5636 5640 5643 5647 5650 5652 5655 5658 5660 5662 5663 5665 5666 5667 5667 5668 5668 5668 5667 5667 5665 5664 5662 5660 5659
5562 5564 5568 5571 5573 5576 5579 5582 5585 5589 5592 5596 5601 5607 5611 5614 5617 5621 5624 5628 5631 5635 5638 5642 5644 5647 5649 5651 5653 5654 5656 5657 5658 5658 5658 5659 5659 5658 5657 5656 5654 5653 5651 5650
5556 5559 5561 5564 5566 5569 5573 5576 5578 5582 5586 5590 5595 5599 5603 5606 5610 5613 5616 5620 5624 5627 5630 5633 5636 5638 5641 5643 5644 5646 5647 5648 5649 5649 5650 5650 5649 5649 5648 5647 5646 5644 5643 5641
5550 5553 5555 5558 5560 5563 5566 5569 5572 5575 5579 5583 5587 5592 5596 5599 5602 5605 5609 5612 5615 5619 5622 5625 5628 5630 5632 5634 5636 5637 5638 5639 5640 5640 5641 5641 5641 5640 5640 5639 5637 5636 5635 5634
5545 5548 5550 5553 5555 5557 5561 5564 5567 5570 5574 5577 5580 5586 5589 5592 5594 5597 5601 5604 5607 5610 5613 5616 5619 5622 5624 5626 5627 5628 5629 5630 5631 5632 5632 5632 5632 5632 5632 5631 5630 5629 5628 5626
5540 5542 5544 5547 5550 5553 5558 5559 5561 5564 5568 5571 5574 5578 5581 5584 5587 5589 5593 5596 5599 5602 5605 5608 5610 5613 5615 5617 5619 5620 5621 5622 5623 5624 5624 5624 5625 5625 5624 5623 5623 5622 5621 5619
5534 5537 5539 5542 5544 5547 5551 5553 5555 5558 5561 5564 5567 5570 5574 5576 5579 5582 5585 5588 5591 5594 5597 5599 5602 5604 5606 5608 5610 5612 5613 5613 5614 5615 5616 5616 5617 5617 5617 5617 5616 5615 5614 5612
5530 5532 5535 5536 5538 5541 5546 5547 5548 5552 5555 5558 5560 5563 5566 5569 5572 5576 5578 5580 5583 5585 5588 5591 5593 5595 5598 5600 5601 5603 5604 5605 5606 5607 5608 5609 5609 5610 5610 5609 5609 5608 5607 5606
5525 5527 5529 5531 5532 5535 5539 5541 5543 5547 5550 5552 5554 5556 5559 5562 5566 5569 5570 5572 5575 5577 5579 5582 5584 5587 5589 5591 5593 5595 5596 5597 5598 5599 5600 5601 5602 5602 5602 5602 5602 5601 5600 5599
5521 5522 5524 5525 5528 5533 5533 5535 5538 5540 5542 5544 5547 5549 5552 5555 5557 5560 5562 5564 5567 5569 5571 5573 5576 5578 5580 5582 5584 5586 5588 5589 5590 5591 5592 5593 5594 5594 5595 5595 5594 5594 5593 5593
5516 5518 5518 5521 5525 5525 5526 5528 5530 5533 5535 5537 5540 5543 5545 5547 5550 5552 5554 5557 5559 5561 5563 5565 5567 5569 5571 5574 5576 5578 5579 5581 5582 5583 5585 5586 5587 5587 5587 5587 5587 5587 5586 5586
5511 5512 5513 5515 5517 5518 5520 5522 5524 5526 5528 5531 5533 5535 5537 5540 5542 5544 5547 5549 5551 5553 5555 5557 5559 5561 5563 5565 5567 5569 5571 5572 5574 5575 5577 5578 5579 5580 5580 5580 5580 5580 5580 5579
5506 5506 5507 5509 5511 5513 5515 5516 5518 5520 5522 5524 5526 5528 5530 5532 5534 5536 5538 5540 5542 5544 5547 5549 5551 5553 5555 5557 5559 5560 5562 5564 5565 5567 5569 5570 5572 5573 5574 5574 5574 5574 5573 5573
5500 5501 5502 5504 5505 5506 5508 5510 5512 5514 5516 5517 5519 5521 5522 5524 5526 5528 5530 5532 5534 5536 5539 5541 5543 5545 5547 5549 5550 5552 5554 5555 5558 5560 5561 5563 5564 5566 5567 5567 5567 5567 5566 5566